Date String (YYYY-MM-DD hh:mm:ss) UTC,Instrument flags,Ambient pressure (hPa),Sample flow (lpm),Bypass flow (lpm),Sample temperature (°C),Ambient temperature (°C),ASC tube jacket temperature (°C),LED temperature (°C),Box temperature (°C),Sample RH (%),Span deviation,Mass concentration (μg/m³),Mass concentration (μg/m³),Mass concentration (μg/m³)
DateTimeUTC,F1_M11,P_M11,Q1_M11,Q2_M11,T1_M11,T2_M11,T3_M11,T4_M11,T5_M11,U1_M11,ZSPAN_M11,X0_M11,X2_M11,X1_M11
2023-02-05 11:00:00,,0825.1,5.01,0.00,22.5,21.1,00.0,31.4,24.3,11.4,0000.0,0011.72,0007.43,0007.03
2023-02-05 11:01:00,,0825.1,5.00,0.00,22.4,21.1,00.0,31.3,24.2,11.3,0000.0,0011.40,0007.41,0007.02
2023-02-05 11:02:00,,0825.1,4.97,0.00,22.4,21.1,00.0,31.3,24.2,11.4,0000.0,0011.42,0007.38,0006.97
2023-02-05 11:03:00,,0825.1,5.04,0.00,22.4,21.1,00.0,31.3,24.2,11.3,0000.0,0011.64,0007.36,0006.94
2023-02-05 11:04:00,,0825.1,4.96,0.00,22.4,21.1,00.0,31.3,24.2,11.2,0000.0,0011.61,0007.35,0006.89
2023-02-05 11:05:00,,0825.0,5.05,0.00,22.4,21.1,00.0,31.3,24.2,10.8,0000.0,0011.68,0007.28,0006.80
2023-02-05 11:06:00,,0825.1,4.96,0.00,22.4,21.1,00.0,31.3,24.2,10.5,0000.0,0011.10,0007.15,0006.65
2023-02-05 11:07:00,,0825.2,5.04,0.00,22.4,21.1,00.0,31.3,24.2,10.6,0000.0,0010.99,0007.04,0006.51
2023-02-05 11:08:00,,0825.2,4.97,0.00,22.4,21.2,00.0,31.3,24.2,10.9,0000.0,0010.94,0006.99,0006.41
2023-02-05 11:09:00,,0825.1,5.00,0.00,22.4,21.1,00.0,31.3,24.2,11.5,0000.0,0010.85,0006.93,0006.35
2023-02-05 11:10:00,,0825.1,5.00,0.00,22.4,21.1,00.0,31.3,24.2,11.3,0000.0,0010.67,0006.85,0006.29
2023-02-05 11:11:00,,0825.0,4.97,0.00,22.4,21.1,00.0,31.3,24.3,11.2,0000.0,0010.61,0006.78,0006.22
2023-02-05 11:12:00,,0824.9,5.03,0.00,22.4,21.2,00.0,31.3,24.3,11.2,0000.0,0010.71,0006.73,0006.17
2023-02-05 11:13:00,,0824.8,4.97,0.00,22.4,21.2,00.0,31.3,24.3,10.8,0000.0,0010.78,0006.67,0006.11
2023-02-05 11:14:00,,0824.9,5.04,0.00,22.4,21.2,00.0,31.3,24.2,10.0,0000.0,0010.40,0006.50,0005.94
2023-02-05 11:15:00,,0825.0,4.97,0.00,22.4,21.1,00.0,31.3,24.2,10.5,0000.0,0010.72,0006.36,0005.83
2023-02-05 11:16:00,,0825.1,5.04,0.00,22.4,21.1,00.0,31.3,24.2,11.2,0000.0,0010.75,0006.34,0005.83
2023-02-05 11:17:00,,0825.0,4.97,0.00,22.4,21.1,00.0,31.3,24.2,11.6,0000.0,0010.77,0006.43,0005.93
2023-02-05 11:18:00,,0825.0,5.03,0.00,22.4,21.1,00.0,31.3,24.2,11.5,0000.0,0010.84,0006.52,0006.01
2023-02-05 11:19:00,,0824.9,4.97,0.00,22.4,21.1,00.0,31.3,24.2,11.5,0000.0,0010.87,0006.54,0006.06
2023-02-05 11:20:00,,0824.9,4.97,0.00,22.4,21.1,00.0,31.3,24.2,11.4,0000.0,0010.86,0006.58,0006.10
2023-02-05 11:21:00,,0825.0,5.00,0.00,22.4,21.1,00.0,31.3,24.2,11.4,0000.0,0010.91,0006.61,0006.12
2023-02-05 11:22:00,,0825.0,4.97,0.00,22.4,21.1,00.0,31.3,24.2,11.4,0000.0,0010.92,0006.66,0006.15
2023-02-05 11:23:00,,0824.9,5.03,0.00,22.4,21.1,00.0,31.3,24.2,11.4,0000.0,0010.72,0006.67,0006.18
2023-02-05 11:24:00,,0825.0,4.97,0.00,22.4,21.1,00.0,31.3,24.2,11.3,0000.0,0010.55,0006.72,0006.22
2023-02-05 11:25:00,,0824.9,5.04,0.00,22.4,21.1,00.0,31.3,24.2,11.4,0000.0,0010.64,0006.87,0006.38
2023-02-05 11:26:00,,0824.9,4.97,0.00,22.4,21.1,00.0,31.3,24.2,11.5,0000.0,0010.06,0006.95,0006.47
2023-02-05 11:27:00,,0824.9,5.04,0.00,22.4,21.1,00.0,31.3,24.2,11.5,0000.0,0009.90,0006.95,0006.46
2023-02-05 11:28:00,,0824.9,4.97,0.00,22.4,21.1,00.0,31.3,24.2,11.5,0000.0,0009.98,0006.91,0006.43
2023-02-05 11:29:00,,0825.0,5.03,0.00,22.4,21.1,00.0,31.3,24.2,11.4,0000.0,0010.06,0006.88,0006.40
2023-02-05 11:30:00,,0825.0,4.98,0.00,22.4,21.1,00.0,31.3,24.2,11.4,0000.0,0010.11,0006.87,0006.39
2023-02-05 11:31:00,,0824.9,4.99,0.00,22.4,21.1,00.0,31.2,24.2,11.4,0000.0,0010.13,0006.84,0006.37
2023-02-05 11:32:00,,0824.9,5.00,0.00,22.4,21.1,00.0,31.3,24.2,11.4,0000.0,0010.13,0006.81,0006.35
2023-02-05 11:33:00,,0824.9,4.98,0.00,22.4,21.1,00.0,31.3,24.2,11.4,0000.0,0010.20,0006.78,0006.32
2023-02-05 11:34:00,,0824.9,5.04,0.00,22.4,21.0,00.0,31.3,24.2,11.4,0000.0,0010.22,0006.75,0006.27
2023-02-05 11:35:00,,0824.9,4.97,0.00,22.4,21.0,00.0,31.3,24.2,11.4,0000.0,0010.15,0006.71,0006.25
2023-02-05 11:36:00,,0825.0,5.04,0.00,22.4,20.9,00.0,31.2,24.1,11.4,0000.0,0010.11,0006.67,0006.22
2023-02-05 11:37:00,,0825.1,4.97,0.00,22.3,20.8,00.0,31.2,24.1,11.4,0000.0,0010.13,0006.68,0006.22
2023-02-05 11:38:00,,0825.2,4.98,0.00,22.3,20.7,00.0,31.2,24.0,11.4,0000.0,0010.13,0006.67,0006.21
2023-02-05 11:39:00,,0825.2,5.02,0.00,22.3,20.6,00.0,31.2,24.0,11.4,0000.0,0010.01,0006.65,0006.21
2023-02-05 11:40:00,,0825.2,5.01,0.00,22.3,20.7,00.0,31.2,23.9,11.4,0000.0,0009.90,0006.64,0006.19
2023-02-05 11:41:00,,0825.2,4.99,0.00,22.2,20.7,00.0,31.2,23.9,11.6,0000.0,0009.79,0006.56,0006.13
2023-02-05 11:42:00,,0825.1,5.03,0.00,22.2,20.8,00.0,31.2,24.0,11.4,0000.0,0009.70,0006.53,0006.08
2023-02-05 11:43:00,,0825.1,4.97,0.00,22.2,20.8,00.0,31.2,24.0,11.3,0000.0,0009.67,0006.54,0006.08
2023-02-05 11:44:00,,0825.0,5.01,0.00,22.2,20.8,00.0,31.2,24.0,11.3,0000.0,0009.63,0006.55,0006.09
2023-02-05 11:45:00,,0825.0,4.99,0.00,22.2,20.9,00.0,31.2,24.1,11.3,0000.0,0009.56,0006.54,0006.11
2023-02-05 11:46:00,,0825.0,4.98,0.00,22.3,21.4,00.0,31.1,24.2,11.2,0000.0,0009.56,0006.55,0006.11
2023-02-05 11:47:00,,0825.0,5.04,0.00,22.4,22.2,00.0,31.1,24.4,10.9,0000.0,0009.57,0006.54,0006.09
2023-02-05 11:48:00,,0825.0,4.94,0.00,22.5,22.6,00.0,31.1,24.6,10.8,0000.0,0009.58,0006.51,0006.06
2023-02-05 11:49:00,,0825.1,5.06,0.00,22.5,22.2,00.0,31.2,24.5,10.7,0000.0,0010.21,0006.48,0006.04
2023-02-05 11:50:00,,0825.1,4.97,0.00,22.5,21.9,00.0,31.2,24.4,10.8,0000.0,0010.53,0006.51,0006.04
2023-02-05 11:51:00,,0825.1,5.03,0.00,22.5,21.5,00.0,31.2,24.3,11.2,0000.0,0010.56,0006.54,0006.08
2023-02-05 11:52:00,,0825.0,4.98,0.00,22.5,21.2,00.0,31.3,24.2,11.3,0000.0,0010.56,0006.61,0006.16
2023-02-05 11:53:00,,0825.0,5.00,0.00,22.4,21.1,00.0,31.3,24.2,11.4,0000.0,0010.73,0006.68,0006.24
2023-02-05 11:54:00,,0825.0,5.00,0.00,22.4,21.0,00.0,31.3,24.2,11.4,0000.0,0010.97,0006.72,0006.29
2023-02-05 11:55:00,,0824.9,4.97,0.00,22.4,21.0,00.0,31.3,24.2,11.3,0000.0,0010.98,0006.75,0006.30
2023-02-05 11:56:00,,0824.9,5.04,0.00,22.4,21.0,00.0,31.3,24.2,11.4,0000.0,0010.97,0006.75,0006.31
2023-02-05 11:57:00,,0824.9,4.97,0.00,22.4,21.0,00.0,31.3,24.2,11.5,0000.0,0011.09,0006.81,0006.35
2023-02-05 11:58:00,,0824.8,5.02,0.00,22.4,21.0,00.0,31.3,24.2,11.5,0000.0,0011.21,0006.86,0006.39
2023-02-05 11:59:00,,0824.8,4.97,0.00,22.4,21.0,00.0,31.3,24.1,11.5,0000.0,0011.37,0006.93,0006.46
